Weather Roundup
Issued by NWS Corpus Christi, TX

Home | Current Version | Previous Version | Text Only | Print | Product List | Glossary On
Versions: 1 2 3 4 5 6 7 8 9 10 11 12 13 14 15 16 17 18 19 20 21 22 23 24 25 26 27 28 29 30 31 32 33 34 35 36 37 38 39 40 41 42 43 44 45 46 47 48 49 50
000
ASUS44 KCRP 262110
HRRCRP

SOUTH TEXAS REGIONAL WEATHER ROUNDUP
NATIONAL WEATHER SERVICE CORPUS CHRISTI TX
400 PM CDT SUN APR 26 2015


TXZ229>244-262200-
...CORPUS CHRISTI AREA OBSERVATIONS...

CITY           SKY/WX    TMP DP  RH WIND       PRES   REMARKS
CORPUS CHRISTI CLOUDY    81  77  88 SE13      29.60F
NAS CORPUS CHR CLOUDY    79  77  94 SE13      29.60F FOG
ROCKPORT       CLOUDY    80  76  87 SE14      29.61F FOG
KINGSVILLE NAS PTSUNNY   87  80  79 SE9       29.58F HX 103
ALICE          MOSUNNY   91  75  59 S10       29.58F HX 101
FALFURRIAS     PTSUNNY   90  76  64 SE6       29.57F HX 102
$$

...VICTORIA AREA OBSERVATIONS...

CITY           SKY/WX    TMP DP  RH WIND       PRES   REMARKS
VICTORIA       CLOUDY    79  76  90 SE12      29.64F FOG
BEEVILLE       PTSUNNY   85  78  78 SE12G20   29.60F HX  97
PLEASANTON     PTSUNNY   87  71  59 SE13      29.58F HX  92
SAN ANTONIO    PTSUNNY   85  70  60 S18       29.60F
$$

...LAREDO AREA OBSERVATIONS...

CITY           SKY/WX    TMP DP  RH WIND       PRES   REMARKS
LAREDO         PTSUNNY   93  70  47 SE8       29.56F HX  98
COTULLA        PTSUNNY   89  71  55 SE13      29.56F HX  95
DEL RIO        SUNNY     94  52  24 SE15G23   29.50F HX  91
MCALLEN        CLOUDY    91  77  63 SE7       29.58F HX 104
HEBBRONVILLE     N/A     90  69  51 S3        29.60F HX  94
$$

...OTHER TEXAS OBSERVATIONS...

CITY           SKY/WX    TMP DP  RH WIND       PRES   REMARKS
BROWNSVILLE    PTSUNNY   87  78  74 SE10      29.59F HX 100
HOUSTON        PTSUNNY   85  71  63 SE13      29.65F HX  90
COL. STATION   PTSUNNY   82  69  64 SE10      29.64F
AUSTIN         PTSUNNY   84  70  62 S15G23    29.61F
WACO           CLOUDY    78  69  73 E13       29.61F
FORT WORTH     PTSUNNY   79  63  57 S9        29.63F
WICHITA FALLS  CLOUDY    75  60  59 E6        29.62S
LUBBOCK        CLOUDY    79  25  13 W18       29.61S
EL PASO        PTSUNNY   60  38  43 W18G29    29.79F
$$

...MARINE OBSERVATIONS...

STATION/POSITION TIME  SKY/WX   TEMP    WIND        PRES    VSBY  WAVE   SWELL
                                AIR SEA DIR/SP/G                  HT/PER HT/PER
                 (UTC)          (F)     (DEG/KT/KT) (MB)    (MI)  (FT/S) (FT/S)
PORT ARANSAS     2100            75 76  120/ 12/ 14 1002.8F
BUOY 90 E PORT A 2050            77 76  120/  8/ 10 1004.2F
BUOY 45 SE BAFFI 2050            77 76  130/ 10/ 12 1002.2F         3/ 6   2/ 6
BUOY 200 E PT IS 2050            81 80  110/ 12/ 12 1004.2F         3/ 7   2/ 7
BUOY 15 E GALVES 2050            75 74  100/  8/  8 1004.3F         3/ 8   2/ 8
$$



USA.gov is the U.S. government's official web portal to all federal, state and local government web resources and services.